Dean International
Flight School

Career Spotlight

Mika

Mika

Congratulations to Mika from Khazakstan. She recently sent us this photo of her flying an Airbus airliner.

More...
Mika's Success Story
close

Congratulations to Mika from Khazakstan. She recently sent us this photo of her flying an Airbus airliner.

Mario

Mario

My dreams could not have been realized if I wouldn't have been part of the Dean International family.

More...
Mario's Success Story
close

"My dreams could not have been realized if I wouldn't have been part of the Dean International family. Thank you Robert, thanks to all my co-workers, and thanks to all of my students!"

Fernando

Fernando

I am now working as a First Officer at TACA and am enjoying every moment of it.

More...
Fernando's Success Story
close

"Will never forget my time of flight training at Dean International. I am now working as a First Officer at TACA and am enjoying every moment of it."

Alvaro

Alvaro

Because of the flight time I was able to built while instructing, I got the experience needed to apply to an airline in Colombia.

More...
Alvaro's Success Story
close

Dean alumnus Alvaro Londoño currently flies with Tampa Cargo. He says of his experience at Dean: "I want to take this opportunity to thank you for giving me the chance to build my experience and expand my knowledge in Dean International. Because of the flight time I was able to built flight instructing, I got the experience needed to apply to an airline in Colombia."

Ralph

Ralph

Every Aruban student of Dean International has made it into Tiara Air Aruba, that is very nice.

More...
Ralph's Success Story
close

"Next to me is my Co-Pilot, Elison. This picture was taken on our first flight together, which was almost exactly 5 years after I finished at Dean International. [...] Every Aruban student of Dean International has made it into Tiara Air Aruba. [...] The future looks bright here in Aruba."

Rohaan

Rohaan

The [..] staff will all work diligently to help you finish your certificates as safely and efficiently as possible.

More...
Rohaan's Success Story
close

After receiving very hard times from other flight schools [...], I came to Dean International where Robert Dean personally sat down with me and gave me a financial and chronological look into how much remained to finish my private pilot certificate. Through his hard efforts as an instructor and mentor, I was able to finish my private pilot certificate within one week.

Welcome to Dean International

In over two decades, Dean International has educated over 7,000 pilots from all over the world, including over 1,000 students from India alone. By offering a great training experience, a friendly service staff, an ample variety of aircraft, and by improving constantly, we have become one of the largest, most prestigious FAA 141-approved flight schools in North America. Located in Miami, Florida, USA, our flight school offers an ideal location for year-round, "learn to fly" weather, flight training. Dean International is not only well-equipped to provide services to professional trainees but also caters to General Aviation renters. Visit or contact our headquarters at Kendall-Tamiami Executive Airport located in Miami, FL today to learn more about us, or simply read more about our programs if you are an international student interested in joining our school.

Local Airport Information
TAF FOR KTMB (Issued: Sun, August 2nd 2015 12:21 PM UTC)
TAF KTMB 021120Z 0212/0312 16008KT P6SM SCT030 SCT050
      FM021700 17010KT P6SM VCTS SCT030CB BKN050
      FM022300 16005KT P6SM VCSH FEW030 SCT120 BKN250
      FM030100 VRB02KT P6SM FEW030 SCT250
     
METAR FOR KTMB (Issued: Sun, August 2nd 2015 11:53 AM UTC):
KTMB 021153Z 14003KT 10SM CLR 28/25 A2996 RMK AO2 SLP145 T02780250 10278 20244 53003

This weather information is provided by the National Weather Service.
It is automatically refreshed every three minutes.
TAF FOR KHST (Issued: Sun, August 2nd 2015 8:06 AM UTC)
TAF KHST 0208/0314 VRB06KT 9999 FEW015 SCT120 QNH2990INS
      BECMG 0214/0215 16012KT 9999 FEW035 QNH2994INS
      BECMG 0305/0306 16009KT 9999 FEW015 SCT100 QNH2993INS TX34/0220Z TN24/0308Z
     
METAR FOR KHST (Issued: Sun, August 2nd 2015 11:58 AM UTC):
KHST 021158Z AUTO 15003KT 10SM CLR 28/24 A2995 RMK AO2 SLP145 T02760242 10276 20257 53004

This weather information is provided by the National Weather Service.
It is automatically refreshed every three minutes.
TAF FOR KOPF (Issued: Sun, August 2nd 2015 12:21 PM UTC)
TAF KOPF 021120Z 0212/0312 15008KT P6SM SCT030 SCT050
      FM021800 15010KT P6SM VCTS SCT030CB BKN060
      FM022300 17005KT P6SM VCSH FEW030 SCT120 BKN250
      FM030100 VRB03KT P6SM FEW030 SCT250
     
METAR FOR KOPF (Issued: Sun, August 2nd 2015 11:53 AM UTC):
KOPF 021153Z 16004KT 10SM CLR 29/24 A2996 RMK AO2 SLP145 T02890239 10289 20261 53002

This weather information is provided by the National Weather Service.
It is automatically refreshed every three minutes.
TAF FOR KMIA (Issued: Sun, August 2nd 2015 12:24 PM UTC)
TAF KMIA 021120Z 0212/0312 14008KT P6SM SCT030 SCT050
      FM021800 14011KT P6SM VCTS SCT030CB BKN060
      FM022300 16005KT P6SM VCSH FEW030 SCT120 BKN250
      FM030100 VRB03KT P6SM FEW030 SCT250
     
METAR FOR KMIA (Issued: Sun, August 2nd 2015 11:53 AM UTC):
KMIA 021153Z 00000KT 10SM FEW025 BKN160 OVC250 29/24 A2996 RMK AO2 SLP146 T02890239 10289 20272 53003

This weather information is provided by the National Weather Service.
It is automatically refreshed every three minutes.
Design by Ariel Llizo
© Dean International Inc. 2012